Location: ??????????
(54.8537°N, 38.8755°E)
Time: 02:18:11
(UTC+00:00)

Transit 4A - Pass Details

Date: 14 September 2024
Orbit: 865 x 977 km, 66.8° (Epoch: 09 October)

Event Time Altitude Azimuth Distance (km) Brightness Sun altitude
Exits shadow 01:14:19 16° 210° (SSW) 2,139 9.3 -14.7°
Maximum altitude 01:19:05 75° 128° (SE) 933 8.0 -14.0°
Drops below altitude 10° 01:25:08 10° 44° (NE) 2,618 11.5 -13.3°
Sets 01:27:42 0° 43° (NE) 3,581 12.4 -12.9°
